Temp_Advection
nan nan nan nan nan nan nan nan nan nan nan nan nan nan nan nan nan nan nan nan nan nan nan nan nan nan nan nan nan nan nan nan nan nan nan nan nan nan nan nan nan nan
nan 0 1 0 0 0 0 1 1 1 0 0 0 0 0 -0 -0 -0 -0 -0 -0 -0 0 0 0 1 1 1 1 1 1 0 0 0 0 0 0 0 0 1 1 nan
nan 0 0 0 0 0 0 1 1 1 1 0 0 1 0 0 0 0 0 -0 -1 -0 -0 -0 0 0 0 1 1 1 1 0 1 1 0 0 0 0 0 1 1 nan
nan 0 0 0 0 0 0 0 0 1 1 0 0 0 0 0 0 0 0 -0 -0 -0 -0 -0 0 0 0 0 0 1 1 1 1 1 1 0 0 0 0 1 1 nan
nan 0 0 0 0 0 0 0 0 0 0 0 0 0 0 0 0 0 0 0 0 -0 0 0 0 0 0 0 0 0 1 1 1 1 0 0 0 0 0 1 0 nan
nan 0 0 0 0 0 0 0 0 0 0 0 0 0 0 0 0 0 0 0 0 0 0 0 1 0 0 0 0 0 1 1 1 1 1 0 0 0 1 1 0 nan
nan 0 0 0 0 0 0 0 0 0 0 0 0 0 0 0 0 0 1 1 1 0 0 1 1 0 0 0 1 0 0 1 1 1 0 0 1 0 0 0 0 nan
nan 0 0 0 0 0 0 0 0 0 0 0 0 0 0 0 0 0 1 1 1 1 1 1 1 1 1 1 1 0 0 0 1 1 0 1 0 0 0 0 1 nan
nan 0 0 0 0 0 0 0 0 0 0 0 0 0 0 0 0 0 1 1 1 1 1 1 1 1 1 1 1 0 0 0 0 0 0 0 0 -0 0 1 1 nan
nan 0 0 0 0 0 0 0 0 0 0 0 0 0 0 0 0 0 1 1 1 1 1 1 1 1 1 1 1 1 1 0 0 0 0 0 0 0 1 1 1 nan
nan 0 0 0 0 0 0 0 0 0 0 0 0 0 0 0 0 0 0 1 1 1 1 1 1 1 1 1 1 1 1 1 0 1 1 0 1 1 0 1 1 nan
nan -0 -0 -0 0 0 0 0 0 0 0 0 0 0 0 0 0 0 0 0 1 1 1 1 1 1 1 1 1 1 1 1 1 1 1 1 1 1 1 1 1 nan
nan -0 -0 -0 -0 0 0 0 0 0 0 0 0 0 0 0 0 0 0 0 1 1 1 1 1 1 1 1 1 1 1 1 1 1 1 1 1 1 1 1 1 nan
nan -0 -0 -0 -0 -0 0 0 0 1 0 0 0 0 0 0 0 0 0 0 1 0 0 1 1 1 1 1 1 1 1 1 1 1 1 1 1 1 1 1 1 nan
nan -0 -0 -0 -0 -0 -0 -0 0 0 1 1 1 0 0 0 0 0 0 1 1 1 0 0 1 1 1 1 1 0 1 1 1 1 1 1 1 1 1 1 1 nan
nan -1 -1 -1 -0 -0 -1 -0 -0 -0 0 0 1 1 1 0 0 0 0 0 1 1 0 0 0 1 0 0 0 0 1 1 1 1 1 1 1 1 1 1 1 nan
nan -1 -1 -1 -1 -1 -1 -1 -1 -0 -0 -0 0 0 1 1 1 1 0 1 1 1 1 0 0 0 0 0 0 0 0 0 1 1 1 1 1 1 1 1 1 nan
nan -1 -1 -1 -1 -1 -1 -1 -1 -1 -1 -0 -0 -0 0 0 1 1 1 1 1 1 1 1 1 0 0 0 -0 0 0 0 0 1 1 1 1 1 1 1 1 nan
nan -1 -1 -1 -1 -1 -1 -1 -1 -1 -1 -1 -1 -0 -0 -0 0 0 0 0 0 1 1 1 1 1 1 0 0 -0 -0 -0 0 0 1 1 1 1 1 1 1 nan
nan -1 -1 -1 -1 -1 -1 -1 -1 -1 -1 -1 -1 -1 -1 -0 -0 -0 0 0 0 0 0 0 1 1 1 1 1 1 0 -0 -0 0 0 1 1 1 1 1 2 nan
nan -1 -1 -1 -1 -1 -1 -1 -1 -1 -1 -1 -1 -1 -1 -1 -1 -1 -0 -0 -0 -0 -0 -0 0 1 1 1 1 1 1 0 0 0 0 0 1 1 2 2 2 nan
nan -1 -1 -1 -1 -1 -1 -1 -1 -1 -1 -1 -1 -1 -0 -0 -0 -0 -1 -1 -0 -0 -1 -1 -0 0 1 1 1 1 1 0 0 0 0 0 1 1 2 2 1 nan
nan -0 -1 -1 -1 -0 -1 -1 -1 -1 -1 -1 -1 -1 -0 -0 -0 -0 -0 -1 -0 -0 -1 -1 -0 -0 0 1 1 1 1 0 0 1 1 0 1 1 1 1 0 nan
nan -0 -1 -1 -2 -1 -0 -0 -1 -1 -1 -1 -1 -1 -0 -0 -1 -1 -0 -0 -0 -0 -0 -1 -1 -0 -0 0 1 1 1 0 0 1 1 1 1 1 0 0 0 nan
nan -1 -0 -1 -2 -2 -1 -0 -1 -1 -1 -1 -1 -1 -0 0 -0 -1 -1 -0 -0 -0 -0 -0 -1 -0 -0 -0 1 1 1 0 -0 0 1 1 0 0 0 0 1 nan
nan nan nan nan nan nan nan nan nan nan nan nan nan nan nan nan nan nan nan nan nan nan nan nan nan nan nan nan nan nan nan nan nan nan nan nan nan nan nan nan nan nan
Wind_Speed
36 37 38 38 38 39 39 40 41 41 42 42 42 43 43 43 43 43 43 42 41 40 39 38 37 36 35 34 34 34 33 33 32 31 31 31 31 32 32 31 31 32
35 36 37 37 38 38 39 39 40 41 42 42 42 42 42 42 42 43 44 43 43 43 42 42 41 40 39 38 37 37 36 36 35 34 33 33 33 33 33 33 32 32
33 34 35 36 37 38 38 38 39 41 41 41 42 42 41 42 42 43 44 44 44 44 44 44 44 43 42 41 40 40 39 38 38 36 35 35 34 34 34 34 33 32
32 33 34 35 35 36 37 38 39 40 41 41 42 42 42 42 42 42 43 44 44 44 44 44 44 44 44 43 42 42 42 41 39 38 37 37 36 35 35 34 34 33
30 30 31 32 33 34 35 36 38 39 40 41 41 42 42 42 42 43 43 44 45 45 45 45 44 44 44 44 44 44 44 43 41 40 40 39 38 37 36 36 36 35
26 27 28 29 30 31 33 35 36 37 39 40 41 41 41 42 43 44 44 44 45 45 45 45 45 45 45 45 45 45 45 45 44 43 42 42 40 39 38 38 37 36
23 24 25 26 27 28 30 32 33 35 36 38 39 40 40 41 42 43 43 44 44 45 45 46 46 46 46 46 46 46 46 46 45 45 44 44 42 41 40 39 38 37
19 20 21 22 24 25 26 28 29 31 33 34 36 38 39 40 41 41 42 43 44 44 45 45 46 46 47 47 47 47 47 47 47 46 46 46 45 44 42 41 40 39
15 17 19 20 22 24 25 26 27 28 29 31 33 35 36 38 39 40 41 42 43 44 44 44 45 46 47 47 48 48 48 48 48 47 48 48 47 46 44 43 42 40
10 13 15 17 19 21 23 24 25 26 27 29 31 32 34 35 37 38 40 41 42 43 43 43 44 45 46 47 48 48 48 48 48 48 48 49 48 48 46 45 44 42
7 9 11 13 14 16 19 20 22 23 25 26 28 30 31 33 34 36 38 40 41 42 43 43 43 44 45 47 47 48 48 48 48 48 49 49 48 48 47 46 45 44
9 10 11 11 13 14 15 17 19 20 22 24 25 27 29 30 31 33 35 38 39 40 41 41 42 42 44 45 46 47 47 48 48 48 48 48 48 48 47 46 46 45
11 11 12 12 13 14 15 16 18 19 21 22 23 25 27 28 29 31 32 35 36 37 39 39 40 40 42 43 44 45 46 47 48 48 48 48 48 48 47 47 46 45
11 12 13 14 14 15 16 17 18 19 20 21 22 23 25 27 28 30 30 32 33 34 36 37 38 39 39 40 42 43 45 46 47 47 47 48 48 48 47 47 47 46
12 13 13 14 15 16 16 17 18 19 20 21 22 23 24 25 27 28 30 31 31 32 33 34 36 37 37 38 39 41 43 45 46 47 47 48 48 48 48 47 47 47
13 14 14 14 15 15 16 17 18 19 20 20 21 22 23 24 26 27 28 30 30 30 30 32 34 34 35 36 37 38 40 42 44 46 47 47 48 49 48 48 48 47
16 16 16 16 16 16 16 17 17 18 19 19 20 21 22 24 25 26 27 28 29 29 29 30 32 32 33 34 35 36 38 40 42 44 45 47 48 48 49 49 48 47
17 17 17 17 17 17 17 17 18 18 18 18 19 19 20 22 23 25 26 28 29 29 29 29 30 30 30 31 32 34 36 38 40 42 44 46 47 48 49 48 48 47
18 18 19 18 19 19 19 19 19 19 19 19 19 19 19 20 20 22 23 24 26 27 28 28 28 28 27 28 30 32 34 36 38 40 43 45 46 48 48 48 47 46
19 19 20 20 20 20 21 21 21 21 21 21 21 21 21 20 20 20 21 22 22 24 25 26 26 27 26 27 27 28 30 34 36 38 41 44 45 47 47 47 46 43
21 21 22 22 22 23 23 23 23 23 22 22 22 22 22 22 21 21 21 21 20 21 23 23 24 25 25 25 26 25 26 30 34 36 39 42 44 45 46 45 42 39
23 24 24 24 24 25 25 25 25 25 24 24 24 23 23 23 22 22 21 21 20 20 21 21 21 22 22 23 23 22 22 27 32 34 36 39 41 43 43 41 38 35
25 25 26 27 26 26 26 26 26 26 26 25 25 25 24 24 24 23 23 22 21 21 21 21 20 20 20 20 20 19 19 25 31 32 33 35 37 40 40 38 36 35
27 26 26 27 28 28 28 27 27 27 26 26 26 26 26 25 25 25 25 24 23 22 21 22 21 19 18 18 18 17 18 23 30 32 32 32 33 36 38 36 35 35
27 27 27 28 30 30 29 29 28 28 28 28 28 28 27 26 26 27 27 26 25 24 23 22 22 20 18 17 16 16 17 22 27 31 32 33 32 34 35 35 34 33
29 29 29 29 30 30 30 30 29 29 30 29 29 29 29 28 27 27 28 27 26 26 24 23 22 21 19 17 16 15 15 19 25 30 32 33 33 33 34 34 34 33
Wind_Direction
244 245 246 248 248 249 249 248 248 250 252 254 256 259 261 263 264 264 263 263 263 263 264 264 264 263 262 262 262 262 263 263 263 262 261 259 258 257 256 252 249 249
246 247 248 249 250 251 250 249 249 250 252 254 257 259 261 263 264 264 265 264 265 265 265 265 264 263 261 261 261 261 261 262 262 262 261 260 259 257 256 255 251 249
249 250 250 251 251 252 253 252 251 250 251 253 256 258 259 261 263 264 265 265 266 266 266 265 264 263 262 261 260 260 260 261 262 261 260 260 260 258 257 256 253 250
251 252 254 255 255 255 255 254 253 252 252 252 254 255 257 259 261 262 263 265 266 266 267 266 264 263 262 260 260 260 260 260 260 259 258 258 258 258 257 256 254 252
254 256 257 258 258 258 256 255 255 254 254 254 254 254 256 257 259 260 261 263 264 265 266 266 264 263 262 261 260 260 259 258 257 257 256 256 256 257 257 256 255 254
256 258 259 260 261 260 259 258 258 257 256 256 255 255 255 256 258 259 260 261 262 264 264 264 263 262 262 262 260 260 259 258 257 256 256 256 255 256 256 255 255 255
259 261 262 263 263 263 262 262 261 260 259 258 257 256 256 256 257 258 259 260 261 262 263 263 263 262 263 262 260 259 258 257 256 255 255 255 254 254 254 254 255 255
262 266 268 268 268 267 266 265 264 263 262 260 259 257 256 256 257 258 258 259 260 261 261 261 262 262 262 261 260 258 257 256 255 254 254 253 253 253 253 253 253 253
266 268 268 268 268 268 269 269 269 267 265 263 262 260 258 256 257 258 259 259 259 260 260 260 260 261 260 260 259 259 257 257 256 255 254 253 253 253 253 252 251 251
277 275 272 270 270 270 271 273 273 272 269 267 265 264 261 258 257 257 258 258 259 259 260 260 259 260 259 259 258 258 257 257 256 255 255 254 254 254 253 252 251 250
304 296 289 284 283 280 278 278 276 274 272 270 268 267 265 262 259 258 257 257 258 259 260 260 260 260 259 258 258 258 257 257 256 255 255 254 254 253 252 251 251 249
311 307 303 300 297 293 289 286 282 279 276 273 271 269 268 266 262 260 258 257 258 260 261 261 261 260 259 259 259 258 257 256 255 254 253 253 252 251 250 250 250 248
308 303 300 298 296 293 291 288 285 283 280 277 273 271 269 268 266 264 261 260 260 260 261 262 262 261 260 260 259 258 257 255 254 252 251 251 250 250 248 248 248 247
303 299 295 293 291 290 288 285 282 279 277 275 273 271 269 268 267 267 266 264 263 262 262 263 263 262 261 260 259 258 257 255 253 251 250 249 249 248 247 247 246 246
306 302 298 295 293 292 289 287 283 278 275 272 270 268 268 267 266 265 266 266 265 264 263 263 263 263 262 261 261 259 257 255 253 251 250 249 248 247 246 245 244 244
315 309 306 303 299 296 294 291 289 286 283 279 275 270 268 266 265 264 264 265 266 265 264 264 264 264 264 263 263 261 259 257 255 253 251 249 248 246 245 243 242 242
320 316 314 312 308 305 302 299 297 295 292 290 286 280 275 270 267 266 265 264 264 264 264 263 263 264 264 264 264 263 261 259 256 254 252 250 248 246 244 243 242 241
320 318 317 315 313 310 308 305 303 300 298 296 293 290 285 279 274 271 268 267 266 266 264 262 262 262 262 263 262 262 261 259 258 255 252 250 248 246 245 244 243 241
318 317 316 315 313 311 309 308 305 303 302 300 298 296 293 290 286 282 278 276 274 272 270 267 264 261 259 259 259 259 260 259 258 256 253 251 249 247 245 244 243 242
313 313 313 312 311 309 308 307 306 305 304 302 300 298 296 294 292 290 288 285 282 279 276 273 270 265 260 256 255 257 258 258 257 255 253 252 250 248 246 245 244 241
309 309 308 308 308 307 306 306 306 305 304 302 301 299 297 295 293 291 290 289 287 286 283 280 277 271 265 259 255 254 254 255 256 254 252 251 250 247 245 244 243 240
306 306 305 305 304 304 304 304 304 303 302 301 300 298 296 295 293 291 290 289 288 288 287 287 284 279 273 264 257 251 245 246 252 254 251 248 247 245 243 241 240 240
303 304 303 302 301 301 301 301 301 300 300 299 297 296 295 294 292 291 290 289 289 288 288 287 287 285 281 271 260 250 238 237 245 250 250 248 246 244 241 238 238 242
302 302 301 299 298 297 297 297 297 296 296 296 295 294 293 292 292 291 290 290 289 288 288 287 286 286 285 277 264 250 234 233 240 245 247 248 246 243 240 238 240 244
303 301 299 298 297 297 296 294 293 292 292 291 290 290 290 290 291 290 290 290 289 288 287 286 285 282 280 277 268 253 234 230 237 242 246 248 246 242 240 241 243 245
303 302 301 300 298 298 297 294 293 292 292 291 291 290 290 290 290 290 289 289 288 287 286 285 283 280 276 271 265 256 236 228 236 242 244 245 245 243 243 245 247 247
Height
1462 1463 1464 1465 1466 1467 1469 1470 1470 1470 1471 1471 1472 1473 1474 1476 1478 1479 1480 1481 1482 1483 1484 1485 1486 1486 1487 1487 1488 1488 1488 1488 1489 1490 1490 1491 1491 1491 1491 1492 1493 1492
1459 1460 1461 1462 1463 1464 1465 1467 1467 1467 1468 1468 1469 1469 1470 1472 1473 1474 1475 1476 1477 1478 1480 1481 1481 1481 1482 1483 1483 1483 1484 1484 1484 1485 1486 1486 1487 1487 1487 1488 1489 1489
1456 1457 1458 1459 1460 1461 1462 1464 1465 1465 1465 1465 1466 1466 1467 1467 1468 1469 1470 1471 1472 1473 1474 1475 1476 1476 1477 1478 1478 1479 1479 1479 1480 1480 1481 1481 1482 1483 1483 1484 1484 1485
1453 1454 1455 1456 1457 1459 1460 1461 1461 1462 1462 1463 1463 1464 1464 1464 1464 1465 1465 1466 1467 1468 1469 1470 1471 1471 1472 1473 1474 1474 1474 1475 1475 1476 1476 1476 1477 1478 1479 1479 1479 1480
1451 1452 1452 1454 1454 1455 1457 1457 1458 1458 1459 1459 1460 1461 1461 1461 1461 1461 1461 1461 1462 1463 1464 1465 1465 1466 1467 1468 1469 1469 1469 1470 1470 1471 1471 1471 1472 1473 1474 1474 1475 1476
1449 1449 1450 1451 1451 1452 1453 1453 1454 1455 1455 1456 1457 1458 1458 1458 1458 1457 1457 1457 1458 1459 1459 1460 1461 1461 1462 1462 1463 1463 1464 1465 1466 1466 1466 1466 1467 1468 1469 1469 1470 1471
1446 1447 1447 1448 1448 1449 1449 1449 1450 1451 1452 1453 1453 1454 1455 1455 1454 1454 1454 1454 1454 1454 1455 1455 1456 1456 1457 1457 1457 1458 1459 1460 1461 1461 1461 1461 1462 1463 1464 1464 1465 1466
1444 1444 1445 1445 1445 1446 1446 1446 1447 1447 1448 1449 1449 1450 1451 1451 1451 1451 1451 1450 1450 1450 1451 1451 1451 1452 1452 1452 1452 1453 1454 1454 1455 1456 1456 1456 1457 1457 1459 1460 1460 1461
1442 1442 1442 1443 1443 1443 1443 1443 1444 1444 1445 1445 1445 1446 1447 1448 1448 1448 1447 1447 1447 1447 1447 1447 1447 1448 1448 1448 1448 1448 1449 1449 1450 1450 1451 1451 1451 1452 1453 1454 1455 1456
1440 1440 1440 1440 1441 1441 1441 1441 1441 1441 1442 1442 1442 1442 1443 1443 1444 1444 1444 1443 1443 1443 1443 1443 1443 1444 1444 1443 1443 1444 1444 1445 1445 1446 1446 1446 1447 1448 1449 1449 1450 1450
1438 1438 1438 1438 1438 1438 1438 1438 1438 1438 1438 1438 1438 1438 1438 1439 1440 1440 1440 1439 1439 1439 1439 1439 1440 1440 1440 1439 1439 1440 1440 1441 1441 1441 1441 1442 1443 1443 1444 1445 1445 1446
1436 1436 1436 1436 1436 1435 1435 1435 1435 1435 1435 1435 1435 1434 1434 1435 1435 1436 1436 1436 1436 1436 1436 1436 1436 1436 1436 1435 1436 1436 1436 1436 1436 1437 1437 1438 1438 1439 1440 1440 1440 1441
1434 1434 1433 1433 1433 1433 1432 1432 1432 1432 1432 1431 1431 1431 1431 1431 1431 1431 1432 1432 1432 1432 1432 1432 1432 1432 1432 1432 1432 1432 1432 1432 1432 1433 1433 1434 1434 1435 1436 1436 1436 1437
1431 1431 1431 1430 1430 1430 1430 1429 1429 1429 1429 1428 1428 1428 1428 1427 1427 1427 1428 1428 1428 1428 1428 1428 1428 1428 1428 1428 1428 1428 1428 1428 1428 1429 1429 1430 1430 1431 1432 1432 1432 1432
1429 1429 1428 1428 1427 1427 1427 1426 1426 1426 1425 1425 1425 1424 1424 1424 1424 1424 1423 1423 1424 1424 1424 1424 1424 1424 1424 1424 1424 1424 1424 1424 1424 1424 1425 1426 1426 1427 1427 1428 1427 1428
1427 1426 1426 1425 1425 1424 1424 1423 1423 1422 1422 1421 1421 1421 1420 1420 1420 1420 1420 1420 1419 1420 1420 1420 1419 1420 1420 1420 1420 1420 1420 1420 1420 1420 1421 1421 1422 1422 1423 1423 1423 1424
1425 1424 1424 1423 1422 1422 1421 1421 1420 1420 1419 1418 1418 1417 1417 1416 1416 1416 1416 1416 1415 1415 1415 1415 1415 1415 1415 1416 1416 1416 1416 1415 1416 1416 1416 1416 1417 1417 1418 1418 1419 1420
1423 1423 1422 1421 1420 1419 1419 1418 1417 1417 1416 1415 1415 1414 1414 1413 1413 1412 1412 1411 1411 1410 1410 1409 1410 1410 1411 1411 1411 1411 1411 1411 1411 1411 1411 1412 1412 1412 1413 1414 1415 1416
1422 1421 1420 1419 1418 1417 1417 1416 1415 1414 1413 1413 1412 1411 1410 1410 1409 1408 1408 1407 1406 1405 1405 1404 1404 1404 1405 1405 1405 1406 1406 1406 1406 1406 1406 1407 1407 1408 1408 1409 1410 1412
1420 1419 1418 1417 1416 1415 1414 1413 1413 1412 1411 1410 1409 1408 1407 1406 1406 1405 1404 1403 1402 1401 1400 1400 1399 1399 1399 1399 1400 1400 1401 1401 1401 1402 1402 1402 1403 1403 1404 1405 1406 1408
1417 1416 1415 1414 1414 1413 1412 1411 1410 1409 1408 1407 1406 1405 1404 1403 1402 1401 1401 1400 1399 1398 1397 1396 1396 1395 1395 1395 1395 1395 1396 1396 1396 1396 1397 1398 1398 1399 1400 1401 1403 1405
1415 1413 1412 1411 1411 1410 1409 1408 1407 1406 1405 1404 1403 1402 1401 1400 1399 1398 1397 1396 1396 1395 1394 1393 1392 1392 1391 1391 1390 1391 1392 1392 1391 1391 1393 1394 1394 1395 1396 1398 1399 1401
1412 1411 1409 1408 1407 1406 1405 1404 1403 1402 1401 1400 1399 1398 1397 1396 1395 1394 1394 1393 1392 1392 1390 1389 1389 1388 1388 1387 1387 1387 1388 1388 1387 1387 1388 1389 1391 1392 1393 1394 1396 1397
1409 1408 1407 1405 1404 1403 1402 1401 1400 1399 1398 1397 1395 1394 1393 1392 1391 1390 1390 1389 1388 1388 1387 1386 1386 1385 1384 1384 1383 1383 1384 1385 1384 1384 1385 1386 1387 1388 1389 1391 1392 1393
1406 1405 1403 1402 1400 1399 1398 1397 1396 1395 1394 1393 1392 1391 1390 1389 1387 1386 1386 1385 1384 1384 1383 1383 1382 1382 1382 1381 1380 1380 1381 1382 1382 1382 1381 1382 1383 1384 1385 1387 1388 1389
1403 1402 1400 1399 1397 1395 1394 1393 1392 1391 1390 1389 1388 1387 1386 1385 1384 1383 1382 1381 1381 1380 1380 1379 1379 1379 1379 1378 1378 1378 1378 1379 1379 1379 1378 1378 1379 1380 1381 1382 1383 1384